Location: All Nations United Methodist Church
(33.0215°N, 96.7483°W)
Time: 15:38:52
(UTC+00:00)

Cosmos 1943 Rocket - Pass Details

Date: 24 January 2021
Orbit: 810 x 845 km, 71.0° (Epoch: 06 March)

Event Time Altitude Azimuth Distance (km) Brightness Sun altitude
Rises 12:35:28 0° 348° (NNW) 3,402 5.1 -11.0°
Reaches altitude 10° 12:38:05 10° 356° (N) 2,467 4.4 -10.5°
Maximum altitude 12:43:21 39° 64° (ENE) 1,257 3.6 -9.4°
Drops below altitude 10° 12:48:36 10° 132° (SE) 2,458 5.8 -8.4°
Sets 12:51:11 0° 140° (SE) 3,388 6.4 -7.8°
